Regional Weather Roundup
Issued by NWS Upton, NY

Current Version | Previous Version | Text Only | Print | Product List | Glossary On
Versions: 1 2 3 4 5 6 7 8 9 10 11 12 13 14 15 16 17 18 19 20 21 22 23 24 25 26 27 28 29 30 31 32 33 34 35 36 37 38 39 40 41 42 43 44 45 46 47 48 49 50
000
ASUS41 KOKX 311105
RWROKX

REGIONAL WEATHER ROUNDUP
NATIONAL WEATHER SERVICE NEW YORK NY
700 AM EDT THU JUL 31 2014

NOTE: "FAIR" INDICATES FEW OR NO CLOUDS BELOW 12,000 FEET WITH NO
SIGNIFICANT WEATHER AND/OR OBSTRUCTIONS TO VISIBILITY.

NYZ071-072-176-178-NJZ106-104-311200-
NEW YORK CITY METRO AREA


CITY           SKY/WX    TMP DP  RH WIND       PRES   REMARKS
CENTRAL PARK   SUNNY     69  54  58 VRB3      30.11S
LAGUARDIA APRT MOSUNNY   70  55  59 S6        30.08R
KENNEDY INTL   MOSUNNY   68  60  75 S7        30.11R
NEWARK/LIBERTY PTSUNNY   65  57  75 SW3       30.09R
BRNX BOT. GARD   N/A     66  57  72 E2        30.11R
TETERBORO      MOSUNNY   67  56  67 CALM      30.08S
$$

NYZ177-179-078>081-311200-
LONG ISLAND NEW YORK

CITY           SKY/WX    TMP DP  RH WIND       PRES   REMARKS
FARMINGDALE    SUNNY     64  60  87 CALM      30.10R
ISLIP          MOSUNNY   67  60  78 SW6       30.09R
SHIRLEY        MOSUNNY   65  63  93 W3        30.11R
WESTHAMPTON    MOSUNNY   59  56  89 CALM      30.12R FOG
MONTAUK POINT    N/A     70  65  84 S3        30.12R
$$

NYZ052-065-067-311200-
HUDSON VALLEY

CITY           SKY/WX    TMP DP  RH WIND       PRES   REMARKS
WHITE PLAINS   SUNNY     62  58  86 CALM      30.09R
NEWBURGH       CLOUDY    61  57  88 CALM      30.09R
MONTGOMERY     LGT RAIN  58  56  93 CALM      30.08R
POUGHKEEPSIE   PTSUNNY   60  57  89 CALM      30.07S
ALBANY         CLOUDY    64  57  78 S7        30.06R
$$

NJZ001-105-106-008-010-013-015-019>022-104-311200-
NEW JERSEY

CITY           SKY/WX    TMP DP  RH WIND       PRES   REMARKS
NEWARK/LIBERTY PTSUNNY   65  57  75 SW3       30.09R
TETERBORO      MOSUNNY   67  56  67 CALM      30.08S
CALDWELL       CLOUDY    59  55  87 CALM      30.10R
MORRISTOWN     PTSUNNY   57  57 100 CALM      30.09S
SOMERVILLE     CLOUDY    57  54  89 NW3       30.08R
LINDEN         FAIR      66  57  73 CALM      30.11R
SUSSEX         CLOUDY    59  56  89 CALM      30.09R
ANDOVER          N/A     58  57  97 CALM      30.09R
TRENTON        PTSUNNY   62  57  83 S3        30.09R
MILLVILLE      SUNNY     59  57  93 CALM      30.11R
ATLANTIC CITY  SUNNY     63  60  90 S3        30.11R
WRIGHTSTOWN    SUNNY     62  59  90 VRB1      30.08S
TOMS RIVER     SUNNY     57  54  88 CALM      30.11R
BELMAR         SUNNY     63  55  77 S5        30.10S
$$

PAZ047>061-062-071-311200-
EASTERN PENNSYLVANIA

CITY           SKY/WX    TMP DP  RH WIND       PRES   REMARKS
PHILADELPHIA   MOSUNNY   66  57  72 S6        30.10R
ALLENTOWN      CLOUDY    62  58  86 CALM      30.09R
SCRANTON       CLOUDY    59  56  89 CALM      30.09R
$$

CTZ002-004>006-009-010-012-RIZ004-006-007-MAZ004-011-015-311200-
SOUTHERN NEW ENGLAND
 IN CT

CITY           SKY/WX    TMP DP  RH WIND       PRES   REMARKS
BRADLEY INTL   PTSUNNY   60  55  83 CALM      30.08R
HARTFORD       MOSUNNY   63  60  90 CALM      30.09R
DANBURY        SUNNY     56  53  90 CALM      30.11R
WTRBRY/OXFORD  PTSUNNY   57  54  88 CALM      30.12R
BRIDGEPORT     MOSUNNY   65  61  87 CALM      30.09R
MERIDEN        MOSUNNY   59  57  93 CALM      30.10R
NEW HAVEN      PTSUNNY   65  62  90 CALM      30.10R
CHESTER        FAIR      66  64  94 CALM      30.11R
GROTON         SUNNY     62  61  96 CALM      30.10R
WILLIMANTIC    MOSUNNY   56  54  93 CALM      30.11R

 IN RI

CITY           SKY/WX    TMP DP  RH WIND       PRES   REMARKS
PROVIDENCE     MOSUNNY   63  59  87 CALM      30.11R
BLOCK ISLAND   SUNNY     68  61  77 SW7       30.11R
WESTERLY       SUNNY     59  56  89 CALM      30.11R

 IN MA

CITY           SKY/WX    TMP DP  RH WIND       PRES   REMARKS
BOSTON         MOSUNNY   63  58  83 S3        30.10R
WORCESTER      SUNNY     60  57  89 SW6       30.11R
WESTFIELD      MOSUNNY   57  54  89 CALM      30.08S
PROVINCETOWN   SUNNY     66  61  82 SW6       30.11R
NANTUCKET      SUNNY     66  64  93 S6        30.12R
$$

ANZ330-335-338-340-345-350-353-355-311200-
COASTAL MARINE OBSERVATIONS


STATION/POSITION TIME  SKY/WX   TEMP    WIND        PRES    VSBY  WAVE
                                AIR SEA DIR/SP/G                  HT/PER
                 (UTC)          (F)     (DEG/KT/KT) (MB)    (MI)  (FT/S)
NY HARB ENTRANCE NOT AVBL
4S FIRE IS       NOT AVBL
23SW MTP         1100            71 70              1019.1          4/ 8
HUDSON CANYON    1100            72 74  270/  8/ 10 1019.5          3/ 8
EXECUTION ROCKS  1100            69 69  180/  6/  8   N/A
WESTERN LI SOUND 1100            68     190/  6/  6   N/A           0
CENTRAL LI SOUND 1100            71 72  230/  8/ 10   N/A           1/ 2
EASTERN LI SOUND 1000            70 67  220/  6/  6   N/A
ROBBINS REEF     1000            68     180/  6/  7   N/A
$$


>>>>>>>>>>>>>>>>>>>>>>>>>>>> KEY <<<<<<<<<<<<<<<<<<<<<<<<<<<
>                                                          <
>     SKY/WX - SKY CONDITION/PRESENT WEATHER               <
>     TMP    - TEMPERATURE IN FAHRENHEIT                   <
>     DP     - DEWPOINT IN FAHRENHEIT                      <
>     RH     - RELATIVE HUMIDITY IN PERCENT                <
>     WIND   - DIRECTION AND SPEED IN MPH                  <
>     PRES   - MEAN SEA LEVEL PRESSURE IN INCHES OF HG     <
>     WCI    - WIND CHILL INDEX                            <
>     VSB    - VISIBILITY IN MILES                         <
>     HX     - HEAT INDEX                                  <
>     TC     - TEMPERATURE IN CELSIUS                      <
>     VRB    - VARIABLE WIND DIRECTION                     <
>                                                          <
>>>>>>>>>>>>>>>>>>>>>>>>>>>> KEY <<<<<<<<<<<<<<<<<<<<<<<<<<<




USA.gov is the U.S. government's official web portal to all federal, state and local government web resources and services.